Location: Frankfurt am Main
(50.1109°N, 8.6821°E)
Time: 13:20:39
(UTC+01:00)

ISS - Pass Details

Date: 31 October 2021
Orbit: 417 x 422 km, 51.6° (Epoch: 07 December)

Event Time Altitude Azimuth Distance (km) Brightness Sun altitude
Exits shadow 03:55:22 11° 77° (ENE) 1,439 -0.2 -32.0°
Drops below altitude 10° 03:55:32 10° 76° (ENE) 1,502 -0.1 -32.0°
Sets 03:57:38 0° 73° (ENE) 2,367 1.2 -31.6°
